OBJECT CL, 62691

Orbit data source: Space-Track

You're viewing an Uncataloged Satellite

Recently launched and/or uncataloged satellites may have evolving metadata. Metadata may include but not limited to: Owner, Maufacturer, Bus, Motor, and Mission.

OBJECT CL, 62691 is a satellite in SSO that was launched on Tue, 14 Jan 2025 UTC via an FALCON 9 launch vehicle from the Air Force Western Test Range (AFWTR). Unknown objects in Earth's orbit typically refer to objects detected orbiting the Earth but have not yet been identified or cataloged. These objects could be anything from previously untracked satellites, spent rocket stages, debris from satellite collisions, or even natural meteoroids temporarily captured by Earth's gravity.

Loading next visibility...
Identifier
62691, 2025-009CL
Orbit
SSO
Country
Flag of TBDTBD
Related business
None
Manufacturer
Unknown
Mission
Operational Amateur Technology
Bus & Motor
Unknown
Mass
Unknown
Launch date (UTC)
2025-01-14 (1 year ago)
Launch vehicle
FALCON 9
Launch site
Air Force Western Test Range (AFWTR)
Object type
Unknown
Shape & HBR
Box, 0.1 m
Radar Cross Section
0.004 m², Small (<0.1 m²)

Expand to show TLE details & history
Last TLE update: 20 hours ago

TLE from 20 hours ago
0 OBJECT CL
1 62691U 25009CL  26103.67691995  .00019202  00000-0  45833-3 0  9994
2 62691  97.3777 187.9613 0003199 106.5446 253.6152 15.41574317 69242
Epoch: 2026-04-13T16:14Z
TLE epoch observation values (Epoch: 2026-04-13T16:14:45.883Z)
Latitude
-0.00008°
Longitude
102.40604°
Altitude
445.199 km
Speed
7.645 km/s
True Right ascension
12h 31m 50s
True Declination
0° 00' 00"
Sunlit
Object was in full shadow at epoch
Visualization orbit readout
Latitude
Unknown
Longitude
Unknown
Altitude
Unknown
Speed
Unknown
Apparent Right ascension
Unknown
Apparent Declination
Unknown
Sunlit
N/A
Visualization observer readout
Local Sidereal Time
19:12:44
Azimuth
Unknown
Elevation
Unknown
Doppler factor
Unknown
Orbital elements
Apogee altitude
440.579 km
Perigee altitude
436.218 km
Semi-major axis
6,816.535 km
Eccentricity
0.00032
Inclination
97.3777°
RAAN
187.9613°
Arg. of periapsis
106.5446°
True anomaly
253.58003°
Mean anomaly
253.6152°
Eccentric anomaly
253.59762°
Mean motion
3.85654 °/min
Orbital period
93.35 mins
BSTAR
0.00045833
Loading maneuver chart data...
Computing Atmospheric mass density...
Loading historical data...
Loading historical data...
Loading historical data...
Loading historical data...
Loading historical data...
Loading historical data...
Loading historical data...

Documentation

Showing up to 5 results
|